Location: Newark
(44.2886°N, 4.8431°E)
Time: 14:48:41
(UTC+00:00)

ZACube-1 - Pass Details

Date: 28 November 2020
Orbit: 584 x 665 km, 97.6° (Epoch: 14 January)

Event Time Altitude Azimuth Distance (km) Brightness Sun altitude
Rises 04:37:44 0° 18° (NNE) 2,823 ? -23.7°
Reaches altitude 10° 04:39:57 10° 24° (NNE) 1,921 ? -23.3°
Maximum altitude 04:43:59 47° 99° (E) 788 ? -22.6°
Drops below altitude 10° 04:48:01 10° 174° (S) 1,932 ? -21.8°
Sets 04:50:16 0° 180° (S) 2,841 ? -21.5°
